STARLINK-3955 (52561 NORAD) Tracking and Keplerian Element Data
This shows tracking and keplerian element data for the satellite.
Feedback or suggestion? Click here.
Element | Value |
Catalog | 52561 |
Name | STARLINK-3955 |
Epoch Orbit | 130 |
Epoch Day | 167.08334491 |
Epoch Year | 2022 |
RAAN | 132.2904 |
Inclination | 53.2174 |
Eccentricity | 0.0001829 |
Argument of Perigee | 40.8681 |
Mean Anonmoly | 142.5911 |
Mean Motion | 15.3315797 |
Decay Rate | -0.00820216 |
L1 | 1 52561U 22051AE 22167.08334491 -.00820216 00000+0 -27285-1 0 9994 |
L2 | 2 52561 53.2174 132.2904 0001829 40.8681 142.5911 15.33157970 1309 |
Live tracking and technical data element details for STARLINK-3955 (NORAD 52561). STARLINK-3955 can be tracked NOW for your location showing map with azimuth and elevation plus other details from your city location.
Track the satellite on the map from your city or location and see movement details for azimuth, elevation, latitude, longitude, range, height, and movement on the map or in text.
IsCatalogInMostPopularTable: catalog: 52561, numindb: 3
Update: records affected: 1
GetName: 52561 STARLINK-3955
Hit Count: updated at: Sat, 25 Jun 2022 04:43:36 GMT